Location: Newark
(49.3000°N, 9.4667°E)
Time: 16:49:02
(UTC+00:00)

Transit 4A - Pass Details

Date: 02 June 2019
Orbit: 862 x 983 km, 66.8° (Epoch: 16 June)

Event Time Altitude Azimuth Distance (km) Brightness Sun altitude
Rises 20:11:49 0° 324° (NW) 3,698 13.5 -7.1°
Reaches altitude 10° 20:14:24 10° 326° (NW) 2,746 12.1 -7.4°
Maximum altitude 20:20:52 78° 53° (NE) 1,003 8.1 -8.1°
Enters shadow 20:27:04 11° 139° (SE) 2,641 9.6 -8.8°
